User: anonymous   Login
Location: Whitehorse
(60.7170°N, 135.0500°W)
Time: 13:38:02
(UTC-07:00)
Language:

Cosmos 2219 Rocket - Orbit

View from above orbital plane
View from above orbital plane
View from above satellite
View from above satellite

Ground track
Ground track

The orbit data is extracted from the following two-line orbital elements,

1 22220U 92076B   16183.21148250  .00000206  00000-0  12754-3 0  9994
2 22220  71.0008  78.0254 0010772  87.4342  74.4297 14.16398254221075
Epoch (UTC): 01 July 2016 05:04:32
Eccentricity: 0.0010772
inclination: 71.0008°
perigee height: 830 km
apogee height: 845 km
right ascension of ascending node: 78.0254°
argument of perigee: 87.4342°
revolutions per day: 14.16398254
mean anomaly at epoch: 74.4297°
orbit number at epoch: 22107

The dashed part of the orbit path shows where the satellite is in the earth's shadow,  

DLR